铱星星座 45星 (IRIDIUM 45)

导读

IRIDIUM 45是美国铱星系统的通信卫星,于1997年12月20日发射升空,是全球低轨个人卫星移动通信系统的组成部分。铱系统由摩托罗拉公司提出设计,IRIDIUM 45运行于高度约780公里的极地圆轨道,依托星上处理、交换及星际链路技术,为全球提供数字化个人通信服务,助力实现全球无缝覆盖的移动互联。

Basic Information
目录编号:
25104
目录名称:
IRIDIUM 45
国际标识:
1997-082A
轨道中心:
EARTH
卫星名称:
铱星星座 45星
卫星全名:
铱星星座 45星 (IRIDIUM 45)
卫星状态:
在轨 (已飞行10485 天)
发射日期:
1997-12-20 UTC
国别 :
美国 (US)
星等 :
--
Orbit Information
数据来源 国际轨道数据
星历时间: 2026-09-04T03:52:07+0800
8小时前
查看轨道信息
半长轴: 6806.76km
偏心率: 0.0075684
轨道倾角: 86.353°
近地点辐角 80.802°
升交点赤经 188.424°
平近点角 280.178°
近地点: 377.106km
远地点: 480.14km
周期: 93.147分钟
每日圈数: 15.459383
Detailed Information
平衡模式:
三轴稳定
覆盖范围:
全球
运营商:
铱星通信公司
运营商所在国:
美国
使用方式:
暂无
Satellite Introduction
铱星(Iridium)是由共66个运作中的通信卫星组成的卫星通信系统。这个系统原本规划77个通信卫星,所以用原子序数为77的铱元素来命名。铱卫星允许人们使用手持型电子设备进行全球性的语音及数据通讯。该卫星已退役。
2D Orbit Map
3D Orbit Map
Orbit Altitude Analysis Chart
Orbit Inclination Analysis Chart
Orbit Comprehensive Analysis Chart
View Comprehensive Chart
Conjunction Data List
Event ID Objects TCA Miss Dist (km) Collision Risk Probability Collision Risk Index (CRI) Action
CDM_260828-235402-510404-738822
2026-08-28T
23:54:21+0000
1.119 km
极远距离
1.763213E-5 中风险 0.6
CDM_260903-114402-510405-305221
2026-09-03T
11:44:12+0000
1.579 km
极远距离
5.370832E-6 低风险 0.5
CDM_260904-135202-510405-348723
2026-09-04T
13:52:37+0000
1.833 km
极远距离
3.684582E-6 低风险 0.46
CDM_260905-004102-510406-152621
2026-09-05T
00:41:59+0000
2.555 km
极远距离
1.642378E-6 低风险 0.39